DateTimeUTC,F1_A11,F1_S11,BsB_S11,BsG_S11,BsR_S11,BbsB_S11,BbsG_S11,BbsR_S11,BaB_A11,BaG_A11,BaR_A11,Tu_S11,T_S11,Uu_S11,U_S11,P_S11,T1_A11
2021-04-28T00:00:00Z,00040200,21000000,,,,,,,0000.24,-000.59,0000.09,19.0,26.4,00.3,00.2,0683.9,31.2
2021-04-28T00:01:00Z,00040200,21000000,,,,,,,-000.46,0000.60,-000.03,18.9,26.4,00.3,00.2,0683.9,31.2
2021-04-28T00:02:00Z,00040200,21000000,,,,,,,0000.31,-000.32,-000.17,18.9,26.4,00.3,00.2,0683.9,31.2
2021-04-28T00:03:00Z,00040200,61000000,,,,,,,0000.12,0000.38,0000.72,18.9,26.4,00.3,00.2,0683.9,31.2
2021-04-28T00:04:00Z,00040200,41000000,0000.40,0000.02,0000.47,-000.23,-000.14,0000.04,0000.08,-000.02,-000.28,19.0,26.2,00.3,00.2,0684.9,31.2
2021-04-28T00:05:00Z,00040200,01000000,0000.44,0000.52,0000.12,0000.34,0000.13,-000.04,0000.37,0000.04,0000.12,19.1,26.1,00.3,00.2,0685.0,31.2
2021-04-28T00:06:00Z,00040200,01000000,0000.55,0000.29,0000.36,0000.21,-000.21,0000.14,0000.13,0000.21,-000.00,19.1,26.1,00.4,00.3,0685.0,31.2
2021-04-28T00:07:00Z,00040200,01000000,-000.04,-000.03,0000.35,-000.07,0000.15,-000.15,0000.05,0000.28,0000.22,19.1,26.1,00.4,00.2,0685.0,31.2
2021-04-28T00:08:00Z,00040200,01000000,0001.01,0000.45,0000.18,0000.26,0000.04,-000.16,0000.40,0000.19,0000.37,19.1,26.0,00.4,00.3,0685.0,31.2
2021-04-28T00:09:00Z,00040200,01000000,0000.90,0000.12,0000.22,0000.12,-000.12,0000.09,0000.06,0000.33,0000.06,19.1,26.1,00.4,00.3,0685.0,31.2
2021-04-28T00:10:00Z,00040200,01000000,0000.60,0000.46,0000.21,0000.27,-000.08,0000.20,0000.73,0000.40,0000.12,19.0,26.0,00.5,00.3,0685.0,31.2
2021-04-28T00:11:00Z,00040200,01000000,0000.97,0000.11,0000.11,0000.52,0000.06,0000.04,0000.01,0000.12,0000.36,19.0,26.0,00.5,00.3,0685.0,31.2
2021-04-28T00:12:00Z,00040200,01000000,-000.06,0000.41,0000.37,-000.52,0000.05,0000.14,-000.15,0000.02,-000.36,19.0,26.0,00.4,00.3,0685.0,31.2
2021-04-28T00:13:00Z,00040200,01000000,0000.41,0000.68,0000.23,0000.34,-000.07,0000.32,0000.57,0000.07,0000.12,19.0,26.0,00.4,00.2,0685.0,31.2
2021-04-28T00:14:00Z,00040200,01000000,0000.88,0000.55,0000.25,0000.26,-000.13,0000.16,0000.39,0000.45,0000.51,19.0,26.0,00.4,00.2,0685.0,31.2
2021-04-28T00:15:00Z,00040200,01000000,-000.23,0000.45,0000.17,-000.03,0000.07,-000.28,0000.10,0000.02,0000.32,19.0,26.0,00.5,00.3,0685.0,31.2
2021-04-28T00:16:00Z,00040200,01000000,0000.23,0000.38,0000.10,-000.23,0000.18,0000.02,0000.53,0000.51,0000.32,19.0,26.0,00.5,00.3,0685.0,31.2
2021-04-28T00:17:00Z,00040200,01000000,0001.11,0000.47,0000.29,0000.59,-000.10,0000.12,0000.36,0000.47,0000.32,19.0,26.0,00.5,00.4,0685.0,31.2
2021-04-28T00:18:00Z,00040200,01000000,0000.88,0000.15,0000.19,0000.28,0000.07,-000.31,0000.36,0000.14,-000.12,19.0,25.9,00.6,00.4,0685.0,31.2
2021-04-28T00:19:00Z,00040200,01000000,0001.04,0000.58,-000.04,0000.37,-000.22,-000.05,0000.06,0000.38,0000.11,18.9,25.9,00.5,00.4,0685.0,31.2
2021-04-28T00:20:00Z,00040200,01000000,0000.58,0000.25,0000.34,0000.28,-000.35,-000.16,0000.29,0000.13,0000.37,19.0,25.9,00.6,00.4,0685.0,31.2
2021-04-28T00:21:00Z,00040200,01000000,-000.26,0000.05,0000.26,-000.01,-000.07,0000.27,0000.43,0000.05,0000.23,19.0,25.9,00.6,00.4,0685.0,31.2
2021-04-28T00:22:00Z,00040200,01000000,-000.37,0000.03,0000.08,-000.20,0000.26,-000.11,0000.31,0000.28,0000.09,19.0,25.9,00.7,00.4,0685.0,31.2
2021-04-28T00:23:00Z,00040200,01000000,0000.35,0000.11,0000.04,0000.81,0000.08,0000.02,0000.51,0000.46,0000.30,19.0,25.9,00.8,00.5,0685.0,31.2
2021-04-28T00:24:00Z,00040200,01000000,0000.14,0000.22,0000.21,0000.17,0000.10,-000.04,0000.35,0000.40,0000.37,18.9,25.9,00.7,00.5,0685.0,31.2
2021-04-28T00:25:00Z,00040200,01000000,0000.67,0000.46,0000.23,0000.29,-000.23,0000.02,0000.14,0000.37,-000.17,18.9,25.9,00.7,00.5,0685.0,31.2
2021-04-28T00:26:00Z,00040200,01000000,0000.35,0000.63,0000.12,0000.39,-000.08,-000.20,0000.03,-000.05,0000.34,18.9,25.9,00.7,00.4,0684.9,31.2
2021-04-28T00:27:00Z,00040200,01000000,0000.03,0000.17,0000.09,0000.06,0000.21,-000.10,0000.19,0000.04,0000.27,18.9,25.8,00.7,00.4,0684.9,31.2
2021-04-28T00:28:00Z,00040200,01000000,0000.19,0000.28,0000.16,0000.05,-000.18,0000.07,0000.29,0000.27,0000.11,18.9,25.8,00.7,00.5,0684.9,31.2
2021-04-28T00:29:00Z,00040200,01000000,0000.62,0000.19,0000.42,-000.03,-000.15,0000.22,0000.74,0000.53,0000.24,18.9,25.8,00.7,00.5,0684.9,31.2
2021-04-28T00:30:00Z,00040200,01000000,0000.75,0000.33,0000.27,-000.01,0000.00,0000.05,-000.12,0000.10,0000.38,18.9,25.8,00.7,00.5,0684.9,31.2
2021-04-28T00:31:00Z,00040200,01000000,0000.25,0000.14,0000.56,0000.57,0000.09,-000.17,0000.43,0000.03,-000.15,18.9,25.8,00.8,00.5,0684.9,31.2
2021-04-28T00:32:00Z,00040200,01000000,0000.60,0000.30,0000.18,0000.18,-000.06,-000.24,0000.47,0000.87,0000.36,18.9,25.8,00.8,00.5,0684.9,31.2
2021-04-28T00:33:00Z,00040200,01000000,-000.06,0000.10,0000.16,0000.35,0000.02,-000.13,0000.05,-000.00,-000.06,18.8,25.8,00.7,00.5,0684.8,31.2
2021-04-28T00:34:00Z,00040200,01000000,0000.63,0000.23,0000.33,0000.38,0000.26,-000.24,0000.22,0000.16,0000.29,18.8,25.8,00.7,00.5,0684.8,31.2
2021-04-28T00:35:00Z,00040200,01000000,0000.44,0000.36,0000.20,0000.08,0000.03,-000.27,0000.39,0000.30,0000.19,18.8,25.8,00.8,00.5,0684.8,31.2
2021-04-28T00:36:00Z,00040200,01000000,-000.09,0000.35,0000.25,0000.04,-000.12,-000.11,0000.30,0000.38,0000.20,18.9,25.8,00.7,00.5,0684.8,31.2
2021-04-28T00:37:00Z,00040200,01000000,0000.55,0000.06,0000.25,0000.24,-000.10,-000.47,0000.13,0000.08,0000.55,18.8,25.8,00.9,00.6,0684.8,31.2
2021-04-28T00:38:00Z,00040200,01000000,0000.21,0000.39,-000.10,0000.10,0000.19,-000.29,0000.52,0000.64,-000.02,18.8,25.8,00.8,00.6,0684.8,31.2
2021-04-28T00:39:00Z,00040200,01000000,0000.99,0000.13,0000.38,0000.32,-000.16,0000.16,0000.54,0000.14,0000.16,18.8,25.7,00.8,00.5,0684.8,31.2
2021-04-28T00:40:00Z,00040200,01000000,0000.21,0000.11,0000.13,-000.02,-000.03,0000.07,-000.13,0000.01,0000.11,18.8,25.7,00.8,00.5,0684.8,31.2
2021-04-28T00:41:00Z,00040200,01000000,0000.63,0000.45,0000.18,0000.26,0000.08,-000.12,0000.33,0000.08,0000.09,18.8,25.7,01.0,00.6,0684.8,31.2
2021-04-28T00:42:00Z,00040200,01000000,0000.41,0000.48,0000.09,0000.12,0000.08,0000.08,-000.11,0000.36,0000.04,18.8,25.7,00.9,00.6,0684.8,31.2
2021-04-28T00:43:00Z,00040200,01000000,0000.96,0000.47,-000.02,0000.38,0000.16,-000.21,0000.25,0000.16,0000.36,18.8,25.7,00.9,00.6,0684.8,31.2
2021-04-28T00:44:00Z,00040200,01000000,0000.72,0000.36,0000.18,0000.66,-000.07,0000.06,0000.46,0000.37,0000.07,18.8,25.7,01.0,00.6,0684.8,31.2
2021-04-28T00:45:00Z,00040200,01000000,0000.97,0000.79,0000.17,0000.27,-000.03,-000.03,0000.27,0000.04,0000.10,18.8,25.7,00.9,00.6,0684.7,31.2
2021-04-28T00:46:00Z,00040200,01000000,0000.59,0000.39,0000.16,0000.78,-000.06,-000.16,0000.27,0000.22,0000.08,18.8,25.7,00.9,00.6,0684.7,31.2
2021-04-28T00:47:00Z,00040200,01000000,0000.18,0000.45,0000.37,0000.58,-000.12,0000.14,0000.12,0000.12,0000.49,18.8,25.7,00.8,00.5,0684.7,31.2
2021-04-28T00:48:00Z,00040200,01000000,0000.90,0000.53,0000.26,0000.53,0000.13,-000.04,0000.30,0000.65,0000.08,18.8,25.7,00.9,00.6,0684.7,31.2
2021-04-28T00:49:00Z,00040200,01000000,0000.87,0000.26,0000.34,-000.06,0000.27,0000.11,0000.55,0000.23,0000.49,18.8,25.7,00.9,00.6,0684.7,31.2
2021-04-28T00:50:00Z,00040200,01000000,0001.00,0000.39,0000.33,0000.59,0000.17,0000.02,0000.37,0000.22,-000.23,18.8,25.7,00.9,00.6,0684.7,31.2
2021-04-28T00:51:00Z,00040200,01000000,0000.36,0000.71,0000.14,0000.42,-000.07,0000.04,0000.18,0000.23,0000.21,18.8,25.7,00.9,00.6,0684.7,31.2
2021-04-28T00:52:00Z,00040200,01000000,0000.62,0000.56,0000.32,0000.46,0000.03,0000.01,0000.57,0000.03,0000.53,18.8,25.7,01.0,00.6,0684.7,31.2
2021-04-28T00:53:00Z,00040200,01000000,0000.69,0000.70,0000.32,0000.57,0000.10,-000.08,0000.29,0000.40,0000.10,18.8,25.7,00.9,00.6,0684.7,31.2
2021-04-28T00:54:00Z,00040200,01000000,0000.84,0000.75,0000.19,0000.10,0000.13,0000.16,0000.21,0000.24,0000.17,18.8,25.6,01.0,00.6,0684.7,31.2
2021-04-28T00:55:00Z,00040200,01000000,0000.78,0000.88,0000.35,0000.21,-000.01,-000.04,0000.58,0000.20,0000.25,18.8,25.6,01.0,00.7,0684.7,31.2
2021-04-28T00:56:00Z,00040200,01000000,0001.13,0000.59,0000.26,0000.20,0000.08,-000.17,0000.32,0000.81,0000.44,18.8,25.6,01.0,00.7,0684.7,31.2
2021-04-28T00:57:00Z,00040200,41000000,,,,,,,-000.13,0000.27,0000.10,18.8,25.7,00.3,00.2,0684.7,31.2
2021-04-28T00:58:00Z,00040200,61000000,,,,,,,0000.03,-000.51,-000.30,18.5,25.8,00.8,00.5,0683.6,31.2
2021-04-28T00:59:00Z,00040200,21000000,,,,,,,0000.25,0000.55,-000.02,18.5,25.9,00.8,00.5,0683.6,31.2
